Date String (YYYY-MM-DD hh:mm:ss) UTC,Instrument flags,Ambient pressure (hPa),Sample flow (lpm),Bypass flow (lpm),Sample temperature (°C),Ambient temperature (°C),ASC tube jacket temperature (°C),LED temperature (°C),Box temperature (°C),Sample RH (%),Span deviation,Mass concentration (μg/m³),Mass concentration (μg/m³),Mass concentration (μg/m³)
DateTimeUTC,F1_M11,P_M11,Q1_M11,Q2_M11,T1_M11,T2_M11,T3_M11,T4_M11,T5_M11,U1_M11,ZSPAN_M11,X0_M11,X2_M11,X1_M11
2022-12-26 09:00:00,,0829.8,5.02,0.00,21.7,20.2,00.0,30.6,23.4,19.7,0000.0,0004.40,0001.92,0001.73
2022-12-26 09:01:00,,0829.8,5.01,0.00,21.6,20.1,00.0,30.6,23.4,19.7,0000.0,0005.11,0001.92,0001.72
2022-12-26 09:02:00,,0829.9,5.03,0.00,21.6,20.2,00.0,30.6,23.4,19.7,0000.0,0004.88,0001.92,0001.72
2022-12-26 09:03:00,,0829.8,4.98,0.00,21.6,20.2,00.0,30.6,23.4,19.7,0000.0,0003.28,0001.93,0001.72
2022-12-26 09:04:00,,0829.9,4.98,0.00,21.6,20.2,00.0,30.6,23.4,19.7,0000.0,0003.27,0001.92,0001.72
2022-12-26 09:05:00,,0829.9,5.01,0.00,21.6,20.3,00.0,30.6,23.4,19.7,0000.0,0003.29,0001.92,0001.72
2022-12-26 09:06:00,,0829.9,5.02,0.00,21.6,20.3,00.0,30.6,23.3,19.7,0000.0,0003.37,0001.94,0001.71
2022-12-26 09:07:00,,0830.0,5.03,0.00,21.6,20.3,00.0,30.5,23.3,19.7,0000.0,0003.33,0001.94,0001.73
2022-12-26 09:08:00,,0830.0,4.98,0.00,21.6,20.3,00.0,30.5,23.3,19.7,0000.0,0003.28,0001.92,0001.71
2022-12-26 09:09:00,,0830.1,4.97,0.00,21.6,20.4,00.0,30.5,23.3,19.6,0000.0,0003.24,0001.92,0001.73
2022-12-26 09:10:00,,0830.1,5.02,0.00,21.6,20.4,00.0,30.5,23.3,19.6,0000.0,0003.22,0001.91,0001.76
2022-12-26 09:11:00,,0830.1,5.01,0.00,21.6,20.4,00.0,30.5,23.4,19.6,0000.0,0003.26,0001.94,0001.77
2022-12-26 09:12:00,,0830.1,5.00,0.00,21.7,21.1,00.0,30.5,23.6,19.5,0000.0,0002.71,0001.97,0001.80
2022-12-26 09:13:00,,0830.1,4.96,0.00,21.8,22.0,00.0,30.5,23.9,19.4,0000.0,0002.69,0002.00,0001.83
2022-12-26 09:14:00,,0830.1,5.02,0.00,21.9,22.1,00.0,30.5,24.0,19.3,0000.0,0002.67,0002.00,0001.85
2022-12-26 09:15:00,,0830.0,5.02,0.00,22.0,21.8,00.0,30.6,23.9,19.2,0000.0,0002.68,0002.02,0001.86
2022-12-26 09:16:00,,0830.0,5.00,0.00,22.0,21.5,00.0,30.6,23.9,19.2,0000.0,0002.67,0002.03,0001.88
2022-12-26 09:17:00,,0830.0,4.96,0.00,22.0,21.3,00.0,30.7,23.9,19.2,0000.0,0002.88,0002.03,0001.90
2022-12-26 09:18:00,,0830.0,5.00,0.00,22.0,21.1,00.0,30.7,23.8,19.2,0000.0,0002.95,0002.05,0001.92
2022-12-26 09:19:00,,0830.0,5.02,0.00,22.0,21.0,00.0,30.7,23.8,19.2,0000.0,0003.05,0002.10,0001.96
2022-12-26 09:20:00,,0830.0,5.02,0.00,21.9,20.9,00.0,30.7,23.8,19.1,0000.0,0003.09,0002.13,0001.99
2022-12-26 09:21:00,,0830.0,5.00,0.00,21.9,20.8,00.0,30.7,23.7,19.1,0000.0,0003.12,0002.14,0002.00
2022-12-26 09:22:00,,0830.1,4.97,0.00,21.9,20.8,00.0,30.7,23.6,19.1,0000.0,0003.15,0002.15,0002.01
2022-12-26 09:23:00,,0830.1,5.00,0.00,21.9,20.7,00.0,30.7,23.7,19.2,0000.0,0003.17,0002.15,0002.01
2022-12-26 09:24:00,,0830.0,5.03,0.00,21.9,20.7,00.0,30.7,23.7,19.2,0000.0,0003.06,0002.14,0002.01
2022-12-26 09:25:00,,0830.0,5.01,0.00,21.9,20.7,00.0,30.7,23.7,19.2,0000.0,0003.05,0002.14,0002.01
2022-12-26 09:26:00,,0830.1,4.96,0.00,21.9,20.7,00.0,30.7,23.6,19.2,0000.0,0003.07,0002.15,0002.01
2022-12-26 09:27:00,,0830.1,4.99,0.00,21.9,20.7,00.0,30.7,23.6,19.3,0000.0,0003.11,0002.16,0002.01
2022-12-26 09:28:00,,0830.1,5.03,0.00,21.9,20.6,00.0,30.7,23.6,19.3,0000.0,0002.99,0002.14,0001.99
2022-12-26 09:29:00,,0830.1,5.02,0.00,21.9,20.6,00.0,30.7,23.6,19.3,0000.0,0002.81,0002.12,0001.97
2022-12-26 09:30:00,,0830.1,4.99,0.00,21.8,20.6,00.0,30.7,23.6,19.3,0000.0,0002.73,0002.09,0001.96
2022-12-26 09:31:00,,0830.2,4.97,0.00,21.8,20.6,00.0,30.7,23.6,19.3,0000.0,0002.70,0002.06,0001.93
2022-12-26 09:32:00,,0830.1,5.00,0.00,21.8,20.6,00.0,30.7,23.6,19.4,0000.0,0002.76,0002.07,0001.90
2022-12-26 09:33:00,,0830.1,5.00,0.00,21.8,20.5,00.0,30.7,23.5,19.4,0000.0,0002.73,0002.04,0001.88
2022-12-26 09:34:00,,0830.1,5.02,0.00,21.8,20.5,00.0,30.7,23.6,19.4,0000.0,0002.67,0002.00,0001.84
2022-12-26 09:35:00,,0830.1,4.97,0.00,21.8,20.5,00.0,30.7,23.5,19.4,0000.0,0002.68,0001.98,0001.80
2022-12-26 09:36:00,,0830.1,4.97,0.00,21.8,20.4,00.0,30.7,23.5,19.4,0000.0,0002.62,0001.95,0001.77
2022-12-26 09:37:00,,0830.1,5.01,0.00,21.7,20.3,00.0,30.7,23.4,19.5,0000.0,0002.68,0001.94,0001.74
2022-12-26 09:38:00,,0830.1,5.00,0.00,21.7,20.2,00.0,30.7,23.3,19.6,0000.0,0002.60,0001.89,0001.71
2022-12-26 09:39:00,,0830.1,5.02,0.00,21.7,20.1,00.0,30.7,23.2,19.6,0000.0,0002.48,0001.87,0001.68
2022-12-26 09:40:00,,0830.1,5.01,0.00,21.6,19.9,00.0,30.7,23.2,19.7,0000.0,0002.54,0001.89,0001.67
2022-12-26 09:41:00,,0830.1,4.99,0.00,21.6,19.8,00.0,30.6,23.2,19.7,0000.0,0002.58,0001.89,0001.64
2022-12-26 09:42:00,,0830.1,4.98,0.00,21.5,19.8,00.0,30.6,23.1,19.7,0000.0,0002.61,0001.90,0001.62
2022-12-26 09:43:00,,0830.2,5.01,0.00,21.5,19.8,00.0,30.6,23.1,19.8,0000.0,0002.49,0001.84,0001.59
2022-12-26 09:44:00,,0830.3,5.03,0.00,21.5,19.9,00.0,30.6,23.2,19.8,0000.0,0002.63,0001.81,0001.57
2022-12-26 09:45:00,,0830.3,5.02,0.00,21.5,19.9,00.0,30.5,23.1,19.9,0000.0,0003.32,0001.82,0001.58
2022-12-26 09:46:00,,0830.4,4.98,0.00,21.5,20.0,00.0,30.5,23.1,19.9,0000.0,0003.34,0001.83,0001.58
2022-12-26 09:47:00,,0830.4,4.96,0.00,21.5,20.8,00.0,30.5,23.4,19.9,0000.0,0003.36,0001.84,0001.59
2022-12-26 09:48:00,,0830.4,5.03,0.00,21.6,21.7,00.0,30.5,23.6,19.7,0000.0,0003.31,0001.83,0001.59
2022-12-26 09:49:00,,0830.4,5.02,0.00,21.7,21.7,00.0,30.5,23.7,19.6,0000.0,0003.37,0001.86,0001.60
2022-12-26 09:50:00,,0830.4,4.96,0.00,21.7,21.4,00.0,30.5,23.7,19.6,0000.0,0003.36,0001.85,0001.60
2022-12-26 09:51:00,,0830.5,4.99,0.00,21.7,21.1,00.0,30.6,23.6,19.6,0000.0,0003.29,0001.82,0001.59
2022-12-26 09:52:00,,0830.5,5.02,0.00,21.7,20.8,00.0,30.6,23.5,19.6,0000.0,0003.22,0001.79,0001.59
2022-12-26 09:53:00,,0830.5,5.02,0.00,21.7,20.7,00.0,30.6,23.5,19.6,0000.0,0003.17,0001.77,0001.58
2022-12-26 09:54:00,,0830.5,4.98,0.00,21.7,20.6,00.0,30.6,23.5,19.6,0000.0,0003.41,0001.74,0001.57
2022-12-26 09:55:00,,0830.6,4.97,0.00,21.7,20.5,00.0,30.6,23.5,19.6,0000.0,0003.66,0001.75,0001.58
2022-12-26 09:56:00,,0830.5,5.01,0.00,21.7,20.4,00.0,30.6,23.5,19.7,0000.0,0002.82,0001.74,0001.57
2022-12-26 09:57:00,,0830.5,5.03,0.00,21.7,20.4,00.0,30.6,23.5,19.6,0000.0,0002.88,0001.75,0001.56
2022-12-26 09:58:00,,0830.4,5.03,0.00,21.7,20.5,00.0,30.6,23.5,19.6,0000.0,0002.91,0001.75,0001.55
2022-12-26 09:59:00,,0830.4,4.98,0.00,21.7,20.4,00.0,30.6,23.5,19.6,0000.0,0003.18,0001.77,0001.55
